This is the latest recevied weather packets stored in our database for station/object IK2ILW-4. If no packets are shown the sender has not sent any weather packets the latest 10 day(s).
| Time | Temp. | Humidity | Pressure | Rain* | Wind** | Luminosity | Snow |
|---|---|---|---|---|---|---|---|
| 1787555859 | 17.22° C | 78% | 1022.6 hPa | 0 mm | - | 403 W/m² | - |
| 1787555567 | 17.22° C | 77% | 1023.5 hPa | 0 mm | - | 392 W/m² | - |
| 1787555260 | 16.67° C | 77% | 1023.5 hPa | 0 mm | - | 373 W/m² | - |
| 1787554968 | 17.22° C | 77% | 1023.5 hPa | 0 mm | - | 359 W/m² | - |
| 1787554673 | 17.22° C | 77% | 1023.6 hPa | 0 mm | - | 350 W/m² | - |
| 1787554363 | 17.22° C | 77% | 1023.6 hPa | 0 mm | - | 339 W/m² | - |
| 1787554074 | 17.22° C | 77% | 1023.6 hPa | 0 mm | - | 316 W/m² | - |
| 1787553767 | 17.22° C | 77% | 1023.5 hPa | 0 mm | - | 309 W/m² | - |
| 1787553455 | 17.22° C | 76% | 1023.5 hPa | 0 mm | - | 295 W/m² | - |
| 1787553157 | 17.22° C | 76% | 1023.5 hPa | 0 mm | - | 281 W/m² | - |
| 1787552867 | 16.67° C | 76% | 1022.7 hPa | 0 mm | - | 269 W/m² | - |
| 1787552555 | 16.67° C | 77% | 1022.7 hPa | 0 mm | - | 251 W/m² | - |
| 1787552256 | 16.67° C | 80% | 1022.7 hPa | 0 mm | - | 236 W/m² | - |
| 1787551973 | 16.67° C | 83% | 1022.7 hPa | 0 mm | - | 223 W/m² | - |
| 1787551672 | 16.11° C | 83% | 1022.7 hPa | 0 mm | - | 207 W/m² | - |
| 1787551356 | 15.56° C | 83% | 1022.7 hPa | 0 mm | - | 190 W/m² | - |
| 1787551069 | 15.56° C | 83% | 1022.6 hPa | 0 mm | - | 176 W/m² | - |
| 1787550759 | 15.56° C | 83% | 1022.6 hPa | 0 mm | - | 160 W/m² | - |
| 1787550456 | 15.56° C | 82% | 1022.6 hPa | 0 mm | - | 35 W/m² | - |
| 1787550165 | 15.56° C | 82% | 1022.4 hPa | 0 mm | - | 33 W/m² | - |
| 1787549858 | 15.56° C | 83% | 1022.4 hPa | 0 mm | - | 30 W/m² | - |
| 1787549569 | 15.56° C | 83% | 1022.4 hPa | 0 mm | - | 28 W/m² | - |
| 1787549268 | 15.56° C | 83% | 1022.3 hPa | 0 mm | - | 26 W/m² | - |
| 1787548963 | 15.56° C | 83% | 1022.3 hPa | 0 mm | - | 25 W/m² | - |
| 1787548672 | 15.56° C | 84% | 1022.3 hPa | 0 mm | - | 21 W/m² | - |
* Rain since midnight (hover to see other rain measurements)
** Current wind speed in m/s (hover to see current wind gust speed)